Regional Weather Roundup
Issued by NWS Wakefield, VA

Current Version | Previous Version | Text Only | Print | Product List | Glossary Off
Versions: 1 2 3 4 5 6 7 8 9 10 11 12 13 14 15 16 17 18 19 20 21 22 23 24 25 26 27

000
ASUS41 KAKQ 260510
RWRAKQ

REGIONAL WEATHER ROUNDUP
NATIONAL WEATHER SERVICE WAKEFIELD VA
100 AM EDT SUN OCT 26 2014

Note: "fair" indicates few or no clouds below 12,000 feet with no
significant weather and/or obstructions to visibility. * = Denotes
station may not report precipitation (e.g., rain,snow,etc.),
thunder or fog.

VAZ042-051-052>054-056-260600-
NORTHERN VIRGINIA

CITY           SKY/WX    TMP DP  RH WIND       PRES   REMARKS
WASH NATIONAL  CLEAR     59  48  67 S12       29.69F
DULLES         PTCLDY    52  44  74 S7        29.70F
FORT BELVOIR   CLEAR     47  45  95 CALM      29.70F
QUANTICO       CLEAR     53  46  77 NW5       29.72F
FREDERICKSBRG* CLEAR     50  45  83 SW5       29.72F
STAFFORD*      FAIR      48  43  81 CALM      29.76F
WARRENTON      CLEAR     43  43 100 CALM      29.71F
CULPEPER*      CLEAR     48  45  87 CALM      29.72F
MANASSAS*      CLEAR     46  46 100 CALM      29.71F
LEESBURG*      CLEAR     61  50  67 S3        29.70S
WINCHESTER     PTCLDY    68  43  40 W22G32    29.70F
FRONT ROYAL*   MOCLDY    68  46  45 W9G20     29.71S
LURAY*         PTCLDY    61  48  63 S8        29.73F
$$

VAZ048-049-060>072-079>083-260600-
CENTRAL AND SOUTH CENTRAL VIRGINIA...AND NORTH CENTRAL NORTH CAROLINA

CITY           SKY/WX    TMP DP  RH WIND       PRES   REMARKS
RICHMOND       CLEAR     59  44  57 W5        29.75S
CHESTERFIELD*    N/A    N/A N/A N/A MISG        N/A
PETERSBURG*    CLEAR     53  44  71 W5        29.77F
HANOVER        CLEAR     57  45  64 W6        29.77R
TAPPAHANNOCK*  CLEAR     55  41  61 CALM      29.74S
CHARLOTTSVILLE CLEAR     63  47  55 VRB3      29.73F
ORANGE*        CLEAR     50  45  81 CALM      29.74F
LOUISA*        CLEAR     55  46  71 SW5       29.73F
FARMVILLE*     CLEAR     52  45  76 CALM      29.77S
CREWE*         CLEAR     58  46  63 W5        29.78S
FORT PICKETT*  CLEAR     55  46  69 W6        29.78S
LUNENBURG*     CLEAR     55  46  69 W3        29.79S
SOUTH HILL*    CLEAR     57  45  62 SW6       29.85S
LAWRENCEVILLE* CLEAR     51  45  79 W5        29.78F
ROANOKE RAPIDS CLEAR     50  45  81 SW6       29.80F
RALEIGH        CLEAR     53  43  68 SW6       29.86F
$$

VAZ088>098-260600-
SOUTHEAST VIRGINIA

CITY           SKY/WX    TMP DP  RH WIND       PRES   REMARKS
NORFOLK        CLEAR     60  44  55 SW14      29.75F
VIRGINIA BEACH CLEAR     59  45  59 SW13      29.74F
NORFOLK NAVAL  CLEAR     60  45  57 SW7       29.77F
WEST POINT*    CLEAR     56  46  69 CALM      29.76S
NEWPORT NEWS   CLEAR     63  45  51 W10       29.75F
LANGLEY AFB    CLEAR     60  46  60 SW13      29.75F
FORT EUSTIS    CLEAR     58  44  57 VRB2      29.74F
WILLIAMSBURG*  CLEAR     61  48  63 W3        29.76S
HR EXEC AP*    CLEAR     54  45  71 SW6       29.78F
FRANKLIN*      CLEAR     55  45  67 S6        29.77F
WAKEFIELD      CLEAR     57  44  62 SW10G20   29.76F
$$

VAZ020-022-025-037-045-260600-
WEST CENTRAL AND SOUTHWEST VIRGINIA

CITY           SKY/WX    TMP DP  RH WIND       PRES   REMARKS
STAUNTON*      MOCLDY    58  47  66 SW9       29.77F
HOT SPRINGS VA CLOUDY    52  48  85 W23G33    29.82F
LYNCHBURG      CLEAR     59  49  69 W6        29.83F
DANVILLE       CLEAR     53  46  77 W6        29.85F
SOUTH BOSTON*  NOT AVBL
MARTINSVILLE   CLEAR     54  49  83 W3        29.89S
ROANOKE        CLEAR     60  49  66 SW7       29.86F
BLACKSBURG     CLEAR     57  52  82 W6        29.90F
DUBLIN*        CLEAR     61  52  72 W15G22    29.91S
MARION*        CLEAR     53  47  82 W12       29.98F
HILLSVILLE*    CLEAR     56  48  76 W9        29.93F
RICHLANDS*     CLOUDY    58  29  33 SW6       29.98F
WISE*          PTCLDY    54  52  94 W8        30.01F
ABINGDON*      CLEAR     54  49  83 W5        30.00S
$$

MDZ021>025-VAZ099-100-260600-
SOUTHERN MARYLAND AND THE DELMARVA PENINSULA

CITY           SKY/WX    TMP DP  RH WIND       PRES   REMARKS
PATUXENT RIVER CLEAR     54  44  69 W5        29.72F
BAY BRIDGE APT   N/A     59  46  63 W8        29.67F
LEONARDTOWN    CLEAR     55  45  67 SW3       29.73F
DOVER          CLEAR     56  47  70 SW10      29.63F
GEORGETOWN     CLEAR     56  47  71 SW7       29.69F
EASTON         CLEAR     58  48  70 CALM      29.72F
CAMBRIDGE      CLEAR     55  45  67 S3        29.70F
SALISBURY      CLEAR     58  48  69 W7        29.70F
OCEAN CITY     CLEAR     58  47  66 W9        29.70F
WALLOPS ISLAND CLEAR     61  47  59 W9        29.72F
ACCOMACK*      CLEAR     61  45  55 SW8       29.72F
$$

NCZ012>017-030>032-260600-
EASTERN NORTH CAROLINA

CITY           SKY/WX    TMP DP  RH WIND       PRES   REMARKS
ELIZABETH CITY CLEAR     57  48  72 SW10      29.78F
AHOSKIE*       CLEAR     50  44  80 CALM      29.80F
EDENTON*       CLEAR     60  50  68 SW5       29.80F
CURRITUCK*     CLEAR     59  45  60 SW8       29.78F
KILL DEVIL HLS CLEAR     59  49  70 SW7       29.78F
MANTEO         CLEAR     58  50  75 SW8       29.80F
CAPE HATTERAS  CLEAR     61  53  75 W8        29.82F
TARBORO*       CLEAR     56  46  67 SW5       29.83F
GOLDSBORO      CLEAR     54  49  83 W7        29.83F
WASHINGTON     CLEAR     55  45  69 W5        29.83F
GREENVILLE     CLEAR     54  45  71 SW6       29.85F
NEW BERN       CLEAR     56  46  69 SW6       29.86F
WILMINGTON     CLEAR     55  46  71 CALM      29.89F
$$

VAZ048-260600-
ELSEWHERE

CITY           SKY/WX    TMP DP  RH WIND       PRES   REMARKS
HARRISBURG PA  CLOUDY    62  49  62 W5        29.62F
BALTIMORE      CLEAR     60  44  55 SW8       29.66F
ANNAPOLIS      CLEAR     56  44  64 SW5       29.67F
ANDREWS AFB    CLEAR     52  45  75 SW6       29.69F
WILMINGTON DE  MOCLDY    58  46  64 SW8       29.63F
PHILADELPHIA   CLOUDY    59  45  59 SW12      29.62F
WILDWOOD NJ*   CLEAR     59  46  63 SW12      29.67F
ATLANTIC CITY  CLEAR     58  46  64 SW9       29.63F
HENDERSON NC   CLEAR     54  40  59 SW7       29.82F
GREENSBORO     CLEAR     59  47  64 W8        29.88F
ROCKY MOUNT    CLEAR     57  43  59 SW8       29.83F
FAYETTEVILLE   CLEAR     57  43  59 SW9       29.87F
CHARLOTTE      CLEAR     52  43  71 NW3       29.93F
$$

VAZ100-260600-
MARINE

STATION/POSITION TIME  TEMP    WIND        PRES    WAVE   SWELL
                       AIR SEA DIR/SP/G            HT/PER HT/PER
                 (UTC) (F)     (DEG/KT/KT) (MB)    (FT/S) (FT/S)
44066 TX TWR #4  0500   64 65  240/ 25/ 29 1002.1F   6/ 6
CAPE MAY NJ      0500   60 64  250/ 20/ 23 1003.7S
LEWES DE         0500   58 60  240/  9/ 14 1004.5F
15NM E FENWICK I 0500   64 64  240/ 19/ 25 1004.7F   5/ 5   2/10
OCEAN-CITY-INLET 0500   60 62  250/ 12/ 14 1005.2F
WACHAPREAGUE VA  0500   62 62  240/  6/ 10 1006.5R
THOMAS POINT MD  0500   59 62  240/ 10/ 11 1006.1F
GOOSES REEF MD   0500   62     260/ 12/ 16 1006.1F
COVE POINT MD    0500   61     260/ 13/ 14 1005.8F
SOLOMONS ISLAND  0500      63                N/A
BISHOPS HEAD MD  0500   62 58  270/ 12/ 13 1005.9S
PINEY POINT MD   0500          270/  6/  8   N/A
POTOMAC MD       0500   61     290/ 10/ 10 1006.2S
CAMBRIDGE MD     0500   59 60  210/  6/  9 1005.4F
LEWISETTA VA     0500   58 60  280/  5/  6 1006.4F
RAPPAHANNOCK LGT 0500          240/ 18/ 20 1006.9F
STINGRAY PT      0500   62     250/ 12/ 14 1007.5F
YORK RVR RNG VA  0500   63     260/ 17/ 20 1006.4F
YORKTOWN VA      0500   61 64  230/  9/ 13 1006.7R
JAMESTOWN VA     0500   59     290/  8/ 10   N/A
DOMINION TERM VA 0500   62     240/ 11/ 13 1007.4S
KIPTOPEKE VA     0500      66  250/ 12/ 15   N/A
CHES BAY BRIDGE  0500   63 64  220/ 17/ 21 1006.3F
CHESAPEAKE LGHT  0400   63     240/ 22/ 23 1008.1F
WILLOUBY STN VA  0500   62     250/ 16/ 17 1005.7F
S CRANEY ISL VA  0500          190/  8/ 11 1007.2F
CAPE HENRY BUOY  0500      67                N/A     3/ 3
1ST LANDING BUOY 0500   64     240/ 16/ 19 1006.8F
CAPE CHARLES BUO 0500      66                N/A     2/ 3   2/11
64NM E OF VA BCH 0500   66 66  240/ 17/ 19 1007.3F   4/ 4   2/10
DUCK PIER NC     0500   62 67  230/ 11/ 14 1007.8F
44100 DUCK FRF   0500      67                N/A     2/ 9
44056 DUCK FRF   0500                        N/A     2/ 9
OREGON INLET NC  0500   63 66  230/ 14/ 16 1008.9F
HATTERAS NC      0500   63 67  240/  8/ 11 1010.3F
DIAMOND SHLS NC  0500   68     260/ 17/ 21 1010.1F   4/ 4   2/10
CAPE LOOKOUT NC  0400   67     270/ 11/ 13 1011.6F
$$



USA.gov is the U.S. government's official web portal to all federal, state and local government web resources and services.